SCP
0 0 -0 0 0 0 0 0 0 0 0 0 0 0 0 0 0 0 0 0 0 0 0 0 0 0 0 0 0 0 1 0 0 0 0 0 0 0 0 0 0 0 0 0
0 0 0 0 0 0 0 0 0 0 0 0 0 0 0 0 0 0 0 0 0 0 0 0 0 0 0 0 0 0 1 1 1 1 1 1 1 0 0 0 0 0 0 0
-0 0 0 0 0 0 0 0 0 0 0 0 0 0 0 0 0 0 0 0 0 0 0 0 0 0 0 0 0 0 0 1 1 1 1 1 1 1 0 1 1 1 0 0
0 0 0 0 0 0 0 0 0 0 0 0 0 0 0 0 0 0 0 0 0 0 0 0 0 0 0 0 0 0 0 0 0 0 0 0 1 0 1 1 1 1 0 0
0 0 0 0 0 0 0 0 0 0 0 0 0 0 0 0 0 0 0 0 0 0 0 0 0 0 0 0 0 0 0 0 0 0 0 0 1 0 0 0 1 2 1 1
0 0 0 0 0 0 0 0 -0 0 0 0 -0 0 0 0 0 0 0 0 0 0 0 0 0 0 0 0 0 0 0 0 0 0 0 0 0 0 0 0 0 0 0 0
0 0 0 0 0 0 0 0 0 0 0 0 0 0 0 0 0 0 0 0 0 0 0 0 0 0 0 0 0 0 0 0 0 0 0 0 1 1 1 0 0 1 0 0
-0 0 0 0 0 0 0 0 0 0 0 0 0 0 0 0 0 0 0 0 0 0 0 0 0 0 0 0 0 0 0 0 0 0 0 0 0 0 0 0 0 0 0 0
0 0 0 0 0 0 0 0 0 0 0 0 0 0 0 0 0 0 0 0 0 0 0 0 0 0 0 0 0 0 0 0 0 0 0 0 0 0 0 1 1 0 1 0
0 0 0 0 0 0 0 0 0 0 0 0 0 0 0 0 0 0 0 0 0 0 0 0 0 0 0 0 0 0 0 0 0 0 0 0 0 0 0 0 0 0 0 0
0 0 0 0 0 0 0 0 0 0 0 0 0 0 0 0 0 0 0 0 0 0 0 0 0 0 0 0 0 0 0 0 0 0 0 0 0 0 0 0 0 0 0 0
0 0 0 0 0 0 0 0 0 0 0 0 0 0 0 0 0 0 0 0 0 0 0 0 0 0 0 0 0 0 0 0 -0 0 0 0 0 0 0 0 0 0 0 0
0 0 0 0 0 0 0 0 0 0 0 0 0 0 0 0 0 0 0 0 0 0 0 0 0 0 0 0 0 0 0 0 0 0 0 0 0 0 0 0 0 0 0 0
0 0 0 0 0 0 0 0 0 0 0 0 0 0 0 0 0 0 0 0 0 0 0 0 0 0 0 0 0 0 0 0 0 0 0 0 0 0 0 0 0 0 0 0
0 0 0 0 0 0 0 0 0 0 0 0 0 0 0 0 0 0 0 0 0 0 0 0 0 0 0 0 0 0 0 0 0 0 0 0 0 0 0 0 0 0 0 0
0 0 0 0 0 0 0 0 0 0 0 0 0 0 0 0 0 0 0 0 0 0 0 0 0 0 0 0 0 0 0 0 0 0 0 0 0 0 0 0 -0 0 0 0
0 0 0 0 0 0 0 0 0 0 0 0 0 0 0 0 0 0 0 0 0 0 0 0 0 0 0 0 0 0 0 0 0 0 0 0 0 0 0 0 0 0 0 0
0 0 0 0 0 0 0 0 0 0 0 0 0 0 0 0 0 0 0 0 0 0 0 0 0 0 0 0 0 0 0 0 0 0 0 0 0 0 0 0 0 0 0 0
0 0 0 0 0 0 0 0 0 0 0 0 0 0 0 0 0 0 0 0 0 0 0 0 0 0 0 0 0 0 0 0 0 0 0 0 0 0 0 0 0 0 0 0
0 0 0 0 0 0 0 0 0 0 0 0 0 0 0 0 0 0 0 0 0 0 0 0 0 0 0 0 0 0 0 0 0 0 0 0 0 0 -0 0 0 0 0 0
0 0 0 0 0 0 0 0 0 0 0 0 0 0 0 0 0 0 0 0 0 0 0 0 0 0 0 0 0 0 0 0 0 0 0 0 -0 -0 -0 -0 0 0 0 -0
0 0 0 0 0 0 0 0 0 0 0 0 0 0 0 0 0 0 0 0 0 0 0 0 0 0 0 0 0 0 0 0 0 0 0 -0 -0 -0 -0 -0 -0 -0 -0 -0
0 0 0 0 0 0 0 0 0 0 0 0 0 0 0 0 0 0 0 0 0 0 0 0 0 0 0 0 0 0 0 0 0 0 0 0 -0 -0 -0 -0 0 0 0 0
0 0 0 0 0 0 0 0 0 0 0 0 0 0 0 0 0 0 0 0 0 0 0 0 0 0 0 0 0 0 0 0 0 0 0 0 0 0 0 0 0 0 0 0
0 0 0 0 0 0 0 0 0 0 0 0 0 0 0 0 0 0 0 0 0 0 0 0 0 0 0 0 0 0 0 0 0 0 0 0 0 0 0 0 0 0 0 0
0 0 0 0 0 0 0 0 0 0 0 0 0 0 0 0 0 0 0 0 0 0 0 0 0 0 0 0 0 0 0 0 0 0 0 0 0 0 0 0 0 0 0 0
Wind_Speed_500mb
13 24 6 27 23 25 25 15 20 6 13 20 19 5 9 3 6 6 7 10 13 17 21 25 28 25 21 17 11 8 10 12 6 9 12 14 14 14 12 12 12 9 8 9
18 2 16 11 15 21 21 23 25 2 7 14 25 21 14 11 4 2 2 8 9 14 19 22 23 23 21 17 14 12 10 12 9 9 9 15 11 15 18 16 18 20 24 18
24 21 2 10 4 18 21 20 23 17 15 19 27 30 29 16 13 7 6 4 6 11 15 18 20 21 20 18 17 14 14 15 12 15 14 15 19 25 25 24 21 16 17 21
11 7 4 9 1 19 27 20 15 24 24 25 6 23 22 30 21 14 8 2 6 8 12 15 18 19 19 18 18 19 20 21 19 26 25 26 27 35 35 33 36 42 36 36
14 5 7 10 14 19 25 21 21 21 24 27 32 21 19 20 24 18 13 6 12 15 16 18 21 22 23 24 26 27 28 29 28 27 32 29 31 33 35 38 44 55 51 49
16 5 6 14 12 8 17 23 27 26 22 23 30 6 11 18 19 9 12 13 11 22 25 23 26 31 34 38 39 38 39 40 38 37 37 39 43 43 44 44 46 47 51 48
19 20 13 8 25 17 13 17 15 13 17 14 12 9 13 17 11 16 15 11 15 22 32 32 42 48 50 48 46 48 47 48 45 44 43 43 47 50 54 55 53 54 52 51
22 12 8 4 10 16 16 14 11 12 15 25 25 18 15 16 10 4 4 11 23 37 36 48 56 56 54 52 53 55 54 53 51 51 53 52 52 52 54 57 57 52 50 52
14 4 12 9 5 10 10 7 14 14 25 20 14 2 28 14 5 12 22 20 33 30 41 48 53 59 57 57 57 57 59 57 55 57 59 60 59 57 59 63 65 63 57 56
6 21 9 14 9 8 12 11 11 9 8 18 21 25 16 4 10 21 22 37 41 51 54 55 55 56 58 58 61 61 62 61 61 62 62 63 64 62 57 58 60 68 72 66
7 5 7 5 20 9 13 19 10 6 12 12 16 14 19 14 17 24 40 45 44 41 51 64 60 61 63 61 65 67 66 68 70 66 68 69 64 59 61 65 71 67 69 72
10 9 18 11 15 9 14 17 7 7 13 15 22 20 9 13 23 28 31 30 34 49 63 63 56 60 65 69 70 70 70 73 75 68 61 58 60 65 61 56 55 54 60 53
5 7 9 16 17 11 14 15 15 13 11 21 19 18 1 37 40 42 49 58 58 58 64 68 68 68 71 70 71 74 71 66 64 63 64 67 60 61 60 63 66 64 59 62
4 16 20 19 27 13 14 18 20 19 13 24 27 38 38 36 32 43 52 55 61 61 69 64 65 74 75 73 70 70 66 63 61 59 56 59 63 61 65 67 67 65 61 59
8 21 24 25 25 24 26 27 27 27 28 28 34 38 36 30 34 44 55 58 59 65 61 68 76 74 76 80 74 74 61 54 60 75 70 66 65 68 66 62 62 62 57 58
11 16 15 26 29 26 29 30 29 28 27 29 32 36 31 41 41 50 54 58 61 58 70 76 68 81 81 78 75 64 54 74 71 67 64 65 64 65 60 61 63 60 60 59
16 14 15 24 12 17 25 21 18 20 14 20 27 32 37 34 40 49 58 59 56 71 75 67 75 75 74 69 60 60 84 71 65 61 64 59 60 57 56 58 54 59 58 58
16 17 18 22 24 26 5 7 7 15 20 21 27 30 32 37 45 52 54 55 68 71 68 66 77 72 72 58 81 71 67 64 63 63 60 56 55 54 56 51 54 53 55 49
21 17 17 15 20 27 27 11 2 7 21 29 21 22 39 44 49 51 49 63 66 71 63 74 64 69 58 78 70 67 62 63 61 58 55 55 52 53 51 53 48 49 45 51
17 19 18 19 19 16 9 13 8 7 15 9 14 33 39 43 25 30 64 66 69 64 69 66 66 54 76 71 63 56 58 59 56 56 52 51 52 48 45 45 43 47 50 50
17 17 25 22 21 20 11 20 8 7 7 22 33 40 41 32 47 63 65 68 67 62 72 65 55 69 72 65 54 58 63 61 58 53 54 46 41 38 37 39 42 43 43 41
17 12 13 14 24 25 22 19 8 8 27 31 36 38 41 49 55 60 65 68 64 74 65 56 58 68 68 62 56 60 62 57 53 43 43 41 37 31 36 41 40 37 41 38
13 19 10 10 4 7 13 12 12 23 32 35 36 36 44 48 55 61 66 61 70 62 59 46 67 68 66 61 53 58 59 51 48 43 39 34 39 33 32 28 32 39 30 28
21 19 12 12 11 16 24 24 23 24 26 28 31 38 41 49 55 60 60 64 60 61 50 55 64 64 67 61 53 51 54 47 40 36 39 41 35 36 32 31 31 32 24 21
10 15 16 25 31 28 26 19 16 18 22 26 30 35 41 48 53 53 59 61 55 57 48 59 57 58 62 61 53 46 49 45 35 31 44 39 37 42 38 32 29 30 28 22
33 25 19 16 14 7 10 9 13 18 23 26 31 37 41 43 45 53 55 52 48 56 46 59 59 54 59 56 51 43 44 42 35 39 48 45 44 48 33 32 31 27 29 25
Wind_Direction_500mb
236 261 297 16 349 333 325 311 292 261 83 289 276 319 142 205 219 116 62 50 55 53 45 44 44 43 41 37 23 7 344 344 325 290 259 259 249 238 239 245 250 272 273 297
235 342 33 326 307 295 293 282 272 290 194 285 272 239 166 223 187 173 94 77 47 48 46 43 41 41 39 37 37 26 12 349 348 313 287 274 283 254 250 248 259 281 288 292
5 83 144 278 258 315 263 291 321 310 310 233 255 259 182 193 191 163 137 113 73 29 18 21 28 30 27 24 22 11 359 343 331 308 315 294 285 284 269 268 262 266 270 284
53 54 297 257 165 339 303 13 305 290 280 277 144 285 172 177 202 203 193 221 349 354 355 356 350 358 358 358 356 352 351 347 335 330 322 312 299 288 275 281 284 290 280 278
102 160 306 275 16 333 317 333 303 296 281 280 267 233 84 151 206 194 210 269 298 316 330 331 333 333 330 331 327 323 322 319 315 315 314 302 292 285 285 281 274 267 267 280
94 49 330 8 300 297 302 277 262 249 248 251 233 275 243 177 208 242 170 242 290 307 312 314 314 316 312 311 309 307 309 308 305 304 295 288 288 288 285 280 277 282 286 283
184 184 130 315 310 177 287 318 297 235 205 255 99 278 302 73 51 352 348 313 296 301 299 316 320 314 309 306 307 306 304 304 304 303 300 293 287 282 278 283 285 282 281 280
286 183 182 66 354 323 302 318 289 305 323 316 319 241 125 86 94 23 319 287 297 295 311 307 303 303 309 311 309 306 302 301 301 300 299 296 290 285 280 278 278 276 274 275
326 110 118 60 353 307 18 272 14 299 279 263 279 27 132 92 163 239 249 282 296 300 299 303 309 314 315 308 305 304 303 300 301 301 300 297 295 290 285 280 278 277 278 278
8 287 145 97 249 170 300 16 242 201 291 312 333 300 75 224 298 338 315 303 312 320 316 310 312 309 304 303 303 303 301 299 299 298 296 295 295 292 283 273 272 273 276 281
329 247 165 228 209 317 181 204 224 319 300 305 307 335 42 18 330 313 307 315 331 317 314 307 309 302 305 311 310 307 305 303 299 296 295 294 291 291 291 291 287 288 285 282
66 301 273 248 57 289 285 301 297 277 279 285 308 307 55 333 284 296 298 321 311 292 304 309 314 315 318 314 309 308 308 304 300 298 297 296 293 294 289 285 288 284 285 282
152 240 282 246 184 208 250 243 226 260 279 273 294 280 337 330 334 326 330 323 321 315 316 319 318 319 314 314 314 315 312 306 304 302 297 295 291 287 286 284 284 284 283 283
345 267 259 267 332 334 261 236 245 254 267 272 276 303 307 328 330 334 326 322 320 320 317 318 324 320 317 321 320 314 310 307 303 298 295 289 287 287 287 286 285 285 277 276
257 263 267 263 283 285 278 275 279 275 274 277 289 301 313 329 336 325 324 319 318 320 324 328 322 323 323 318 315 312 307 304 299 296 291 285 284 287 290 282 285 287 282 276
210 269 274 281 267 262 278 278 276 271 273 275 291 299 325 328 320 324 320 323 328 325 325 322 327 323 318 318 314 310 305 303 308 303 300 299 298 297 291 289 290 289 284 280
233 270 264 283 273 282 280 291 249 290 287 292 293 314 319 319 321 322 319 325 328 330 324 328 323 321 323 319 314 305 307 311 309 303 304 302 303 298 295 293 287 291 289 287
240 249 272 271 290 277 68 92 345 292 288 297 297 312 318 310 319 315 319 329 330 325 328 327 324 322 320 313 310 318 317 313 310 307 309 307 308 299 297 293 291 292 291 289
237 254 267 263 280 303 261 167 72 84 296 300 292 322 305 316 313 310 329 331 324 328 328 327 321 321 314 320 327 324 317 315 316 315 314 311 309 307 298 293 293 293 288 290
227 232 263 268 273 276 26 114 91 320 285 55 303 314 313 315 311 318 327 325 329 328 329 326 326 318 322 333 329 323 324 325 325 325 319 317 313 308 297 298 295 291 292 296
211 225 233 243 253 258 104 138 143 259 301 336 318 310 317 316 314 317 321 329 326 331 329 328 321 321 333 336 330 331 334 331 329 322 317 322 319 311 309 301 298 303 303 298
219 216 253 249 264 274 123 138 203 275 312 304 310 311 312 314 315 320 327 326 330 329 331 326 318 330 339 343 338 333 334 333 333 330 326 324 322 316 307 307 308 305 305 300
254 243 273 192 262 109 205 244 276 286 300 307 309 311 309 314 321 326 327 328 331 334 329 322 328 334 342 344 341 336 339 338 342 343 338 341 333 329 332 326 323 318 317 317
198 240 241 268 266 276 239 257 275 285 294 306 304 304 319 318 324 326 325 331 334 330 326 319 332 335 336 341 340 338 343 345 349 345 344 350 345 341 340 333 337 347 347 346
292 162 235 255 265 261 255 263 284 287 299 302 307 316 319 323 325 326 329 330 330 326 320 326 331 331 334 338 338 338 345 349 354 347 351 360 1 353 346 348 356 5 11 16
249 236 245 258 309 262 256 269 277 288 298 308 315 318 320 324 324 326 329 327 327 325 320 327 333 332 333 335 337 337 343 349 346 346 355 359 1 354 5 12 19 25 34 30
Wind_Speed_850mb
13 24 6 27 23 25 25 15 20 6 13 20 19 5 9 3 6 6 7 10 13 17 21 25 28 25 21 17 11 8 10 12 6 9 12 14 14 14 12 12 12 9 8 9
18 2 16 11 15 21 21 23 25 2 7 14 25 21 14 11 4 2 2 8 9 14 19 22 23 23 21 17 14 12 10 12 9 9 9 15 11 15 18 16 18 20 24 18
24 21 2 10 4 18 21 20 23 17 15 19 27 30 29 16 13 7 6 4 6 11 15 18 20 21 20 18 17 14 14 15 12 15 14 15 19 25 25 24 21 16 17 21
11 7 4 9 1 19 27 20 15 24 24 25 6 23 22 30 21 14 8 2 6 8 12 15 18 19 19 18 18 19 20 21 19 26 25 26 27 35 35 33 36 42 36 36
14 5 7 10 14 19 25 21 21 21 24 27 32 21 19 20 24 18 13 6 12 15 16 18 21 22 23 24 26 27 28 29 28 27 32 29 31 33 35 38 44 55 51 49
16 5 6 14 12 8 17 23 27 26 22 23 30 6 11 18 19 9 12 13 11 22 25 23 26 31 34 38 39 38 39 40 38 37 37 39 43 43 44 44 46 47 51 48
19 20 13 8 25 17 13 17 15 13 17 14 12 9 13 17 11 16 15 11 15 22 32 32 42 48 50 48 46 48 47 48 45 44 43 43 47 50 54 55 53 54 52 51
22 12 8 4 10 16 16 14 11 12 15 25 25 18 15 16 10 4 4 11 23 37 36 48 56 56 54 52 53 55 54 53 51 51 53 52 52 52 54 57 57 52 50 52
14 4 12 9 5 10 10 7 14 14 25 20 14 2 28 14 5 12 22 20 33 30 41 48 53 59 57 57 57 57 59 57 55 57 59 60 59 57 59 63 65 63 57 56
6 21 9 14 9 8 12 11 11 9 8 18 21 25 16 4 10 21 22 37 41 51 54 55 55 56 58 58 61 61 62 61 61 62 62 63 64 62 57 58 60 68 72 66
7 5 7 5 20 9 13 19 10 6 12 12 16 14 19 14 17 24 40 45 44 41 51 64 60 61 63 61 65 67 66 68 70 66 68 69 64 59 61 65 71 67 69 72
10 9 18 11 15 9 14 17 7 7 13 15 22 20 9 13 23 28 31 30 34 49 63 63 56 60 65 69 70 70 70 73 75 68 61 58 60 65 61 56 55 54 60 53
5 7 9 16 17 11 14 15 15 13 11 21 19 18 1 37 40 42 49 58 58 58 64 68 68 68 71 70 71 74 71 66 64 63 64 67 60 61 60 63 66 64 59 62
4 16 20 19 27 13 14 18 20 19 13 24 27 38 38 36 32 43 52 55 61 61 69 64 65 74 75 73 70 70 66 63 61 59 56 59 63 61 65 67 67 65 61 59
8 21 24 25 25 24 26 27 27 27 28 28 34 38 36 30 34 44 55 58 59 65 61 68 76 74 76 80 74 74 61 54 60 75 70 66 65 68 66 62 62 62 57 58
11 16 15 26 29 26 29 30 29 28 27 29 32 36 31 41 41 50 54 58 61 58 70 76 68 81 81 78 75 64 54 74 71 67 64 65 64 65 60 61 63 60 60 59
16 14 15 24 12 17 25 21 18 20 14 20 27 32 37 34 40 49 58 59 56 71 75 67 75 75 74 69 60 60 84 71 65 61 64 59 60 57 56 58 54 59 58 58
16 17 18 22 24 26 5 7 7 15 20 21 27 30 32 37 45 52 54 55 68 71 68 66 77 72 72 58 81 71 67 64 63 63 60 56 55 54 56 51 54 53 55 49
21 17 17 15 20 27 27 11 2 7 21 29 21 22 39 44 49 51 49 63 66 71 63 74 64 69 58 78 70 67 62 63 61 58 55 55 52 53 51 53 48 49 45 51
17 19 18 19 19 16 9 13 8 7 15 9 14 33 39 43 25 30 64 66 69 64 69 66 66 54 76 71 63 56 58 59 56 56 52 51 52 48 45 45 43 47 50 50
17 17 25 22 21 20 11 20 8 7 7 22 33 40 41 32 47 63 65 68 67 62 72 65 55 69 72 65 54 58 63 61 58 53 54 46 41 38 37 39 42 43 43 41
17 12 13 14 24 25 22 19 8 8 27 31 36 38 41 49 55 60 65 68 64 74 65 56 58 68 68 62 56 60 62 57 53 43 43 41 37 31 36 41 40 37 41 38
13 19 10 10 4 7 13 12 12 23 32 35 36 36 44 48 55 61 66 61 70 62 59 46 67 68 66 61 53 58 59 51 48 43 39 34 39 33 32 28 32 39 30 28
21 19 12 12 11 16 24 24 23 24 26 28 31 38 41 49 55 60 60 64 60 61 50 55 64 64 67 61 53 51 54 47 40 36 39 41 35 36 32 31 31 32 24 21
10 15 16 25 31 28 26 19 16 18 22 26 30 35 41 48 53 53 59 61 55 57 48 59 57 58 62 61 53 46 49 45 35 31 44 39 37 42 38 32 29 30 28 22
33 25 19 16 14 7 10 9 13 18 23 26 31 37 41 43 45 53 55 52 48 56 46 59 59 54 59 56 51 43 44 42 35 39 48 45 44 48 33 32 31 27 29 25
Wind_Direction_850mb
236 261 297 16 349 333 325 311 292 261 83 289 276 319 142 205 219 116 62 50 55 53 45 44 44 43 41 37 23 7 344 344 325 290 259 259 249 238 239 245 250 272 273 297
235 342 33 326 307 295 293 282 272 290 194 285 272 239 166 223 187 173 94 77 47 48 46 43 41 41 39 37 37 26 12 349 348 313 287 274 283 254 250 248 259 281 288 292
5 83 144 278 258 315 263 291 321 310 310 233 255 259 182 193 191 163 137 113 73 29 18 21 28 30 27 24 22 11 359 343 331 308 315 294 285 284 269 268 262 266 270 284
53 54 297 257 165 339 303 13 305 290 280 277 144 285 172 177 202 203 193 221 349 354 355 356 350 358 358 358 356 352 351 347 335 330 322 312 299 288 275 281 284 290 280 278
102 160 306 275 16 333 317 333 303 296 281 280 267 233 84 151 206 194 210 269 298 316 330 331 333 333 330 331 327 323 322 319 315 315 314 302 292 285 285 281 274 267 267 280
94 49 330 8 300 297 302 277 262 249 248 251 233 275 243 177 208 242 170 242 290 307 312 314 314 316 312 311 309 307 309 308 305 304 295 288 288 288 285 280 277 282 286 283
184 184 130 315 310 177 287 318 297 235 205 255 99 278 302 73 51 352 348 313 296 301 299 316 320 314 309 306 307 306 304 304 304 303 300 293 287 282 278 283 285 282 281 280
286 183 182 66 354 323 302 318 289 305 323 316 319 241 125 86 94 23 319 287 297 295 311 307 303 303 309 311 309 306 302 301 301 300 299 296 290 285 280 278 278 276 274 275
326 110 118 60 353 307 18 272 14 299 279 263 279 27 132 92 163 239 249 282 296 300 299 303 309 314 315 308 305 304 303 300 301 301 300 297 295 290 285 280 278 277 278 278
8 287 145 97 249 170 300 16 242 201 291 312 333 300 75 224 298 338 315 303 312 320 316 310 312 309 304 303 303 303 301 299 299 298 296 295 295 292 283 273 272 273 276 281
329 247 165 228 209 317 181 204 224 319 300 305 307 335 42 18 330 313 307 315 331 317 314 307 309 302 305 311 310 307 305 303 299 296 295 294 291 291 291 291 287 288 285 282
66 301 273 248 57 289 285 301 297 277 279 285 308 307 55 333 284 296 298 321 311 292 304 309 314 315 318 314 309 308 308 304 300 298 297 296 293 294 289 285 288 284 285 282
152 240 282 246 184 208 250 243 226 260 279 273 294 280 337 330 334 326 330 323 321 315 316 319 318 319 314 314 314 315 312 306 304 302 297 295 291 287 286 284 284 284 283 283
345 267 259 267 332 334 261 236 245 254 267 272 276 303 307 328 330 334 326 322 320 320 317 318 324 320 317 321 320 314 310 307 303 298 295 289 287 287 287 286 285 285 277 276
257 263 267 263 283 285 278 275 279 275 274 277 289 301 313 329 336 325 324 319 318 320 324 328 322 323 323 318 315 312 307 304 299 296 291 285 284 287 290 282 285 287 282 276
210 269 274 281 267 262 278 278 276 271 273 275 291 299 325 328 320 324 320 323 328 325 325 322 327 323 318 318 314 310 305 303 308 303 300 299 298 297 291 289 290 289 284 280
233 270 264 283 273 282 280 291 249 290 287 292 293 314 319 319 321 322 319 325 328 330 324 328 323 321 323 319 314 305 307 311 309 303 304 302 303 298 295 293 287 291 289 287
240 249 272 271 290 277 68 92 345 292 288 297 297 312 318 310 319 315 319 329 330 325 328 327 324 322 320 313 310 318 317 313 310 307 309 307 308 299 297 293 291 292 291 289
237 254 267 263 280 303 261 167 72 84 296 300 292 322 305 316 313 310 329 331 324 328 328 327 321 321 314 320 327 324 317 315 316 315 314 311 309 307 298 293 293 293 288 290
227 232 263 268 273 276 26 114 91 320 285 55 303 314 313 315 311 318 327 325 329 328 329 326 326 318 322 333 329 323 324 325 325 325 319 317 313 308 297 298 295 291 292 296
211 225 233 243 253 258 104 138 143 259 301 336 318 310 317 316 314 317 321 329 326 331 329 328 321 321 333 336 330 331 334 331 329 322 317 322 319 311 309 301 298 303 303 298
219 216 253 249 264 274 123 138 203 275 312 304 310 311 312 314 315 320 327 326 330 329 331 326 318 330 339 343 338 333 334 333 333 330 326 324 322 316 307 307 308 305 305 300
254 243 273 192 262 109 205 244 276 286 300 307 309 311 309 314 321 326 327 328 331 334 329 322 328 334 342 344 341 336 339 338 342 343 338 341 333 329 332 326 323 318 317 317
198 240 241 268 266 276 239 257 275 285 294 306 304 304 319 318 324 326 325 331 334 330 326 319 332 335 336 341 340 338 343 345 349 345 344 350 345 341 340 333 337 347 347 346
292 162 235 255 265 261 255 263 284 287 299 302 307 316 319 323 325 326 329 330 330 326 320 326 331 331 334 338 338 338 345 349 354 347 351 360 1 353 346 348 356 5 11 16
249 236 245 258 309 262 256 269 277 288 298 308 315 318 320 324 324 326 329 327 327 325 320 327 333 332 333 335 337 337 343 349 346 346 355 359 1 354 5 12 19 25 34 30